Regional Weather Roundup
Issued by NWS

Home | Current Version | Previous Version | Graphics & Text | Print | Product List | Glossary Off
Versions: 1 2 3 4 5 6 7 8 9 10 11 12 13 14 15 16 17 18 19 20 21 22 23 24 25 26 27 28 29 30 31 32 33 34 35 36 37 38 39 40 41 42 43 44 45 46 47 48 49 50

000
ASUS43 KMKX 290411
RWRWI

WISCONSIN REGIONAL WEATHER ROUNDUP
NATIONAL WEATHER SERVICE MILWAUKEE/SULLIVAN WI
1100 PM CDT THU APR 28 2016

NOTE: "FAIR" INDICATES FEW OR NO CLOUDS BELOW 12,000 FEET WITH NO
SIGNIFICANT WEATHER AND/OR OBSTRUCTIONS TO VISIBILITY.

WIZ001-002-006>008-014>016-023>028-290500-
NORTHWEST WISCONSIN

CITY           SKY/WX    TMP DP  RH WIND       PRES   REMARKS
SUPERIOR ARPT  PTCLDY    35  32  88 E5        30.16S WCI  31
ASHLAND        PTCLDY    34  30  85 N6        30.13S WCI  29
HAYWARD        CLOUDY    38  26  62 CALM      30.12R
SIREN          CLOUDY    41  25  53 CALM      30.13S
CUMBERLAND     CLOUDY    39  36  87 SW5       30.11S
RICE LAKE      CLOUDY    41  36  82 CALM      30.13S
CHETEK         CLOUDY    40  37  87 CALM      30.11S
LADYSMITH      CLOUDY    42  36  79 SW6       30.11S
EAU CLAIRE     RAIN      39  38  96 CALM      30.11S FOG
MENOMONIE      RAIN      39  39  99 SE5       30.12S
NEW RICHMOND   CLOUDY    39  39  98 CALM      30.13R
OSCEOLA        CLOUDY    41  41 100 CALM      30.16R
$$

WIZ003>005-009-010-017-018-290500-
NORTH CENTRAL WISCONSIN

CITY           SKY/WX    TMP DP  RH WIND       PRES   REMARKS
MANITOWISH WTR CLOUDY    40  24  53 NE6       30.08S
ARBOR VITAE    CLOUDY    44  28  52 CALM      30.07S
WOODRUFF       CLOUDY    44  28  52 CALM      30.07S
RHINELANDER    LGT RAIN  39  34  82 SE8       30.11R WCI  33
EAGLE RIVER    CLOUDY    45  21  39 CALM      30.07S
LAND O LAKES   CLOUDY    41  23  49 E6        30.10R
PHILLIPS       CLOUDY    42  32  68 S7        30.08R
TOMAHAWK       LGT RAIN  40  34  77 SE5       30.11R
MEDFORD        CLOUDY    37  36  99 CALM      30.09S
MERRILL        DRIZZLE   38  37  96 SE3       30.11R
$$

WIZ029-030-035-036-043>047-290500-
CENTRAL WISCONSIN

CITY           SKY/WX    TMP DP  RH WIND       PRES   REMARKS
WAUSAU         LGT RAIN  39  35  86 E5        30.08F
MOSINEE        DRIZZLE   36  36 100 NE6       30.10F WCI  31
MARSHFIELD     LGT RAIN  38  35  89 E6        30.09S WCI  33
STEVENS POINT  LGT RAIN  35  34  96 N8        30.09F WCI  28
WAUPACA        CLOUDY    41  33  73 N5        30.08F
WAUTOMA        CLOUDY    39  35  86 NE6       30.08  WCI  35
WISC RAPIDS    CLOUDY    38  33  82 NE8       30.10S WCI  32
CAMP DOUGLAS   CLOUDY    39  39 100 N5        30.07F
$$

WIZ011>013-019>022-031-037>040-048>050-290500-
NORTHEAST WISCONSIN

CITY           SKY/WX    TMP DP  RH WIND       PRES   REMARKS
ANTIGO         LGT RAIN  35  34  96 CALM      30.10S
SHAWANO        DRIZZLE   41  37  85 N13       30.10R
OCONTO         CLOUDY    42  31  66 N5        30.08S
STURGEON BAY   CLOUDY    43  28  56 NE8       30.10S
GREEN BAY      CLOUDY    43  32  65 N6        30.07F
MANITOWOC      CLOUDY    42  34  73 MISG      30.07R
APPLETON       CLOUDY    41  30  65 N6        30.06R
CLINTONVILLE   CLOUDY    37  34  87 NE9       30.09S WCI  31
OSHKOSH        CLOUDY    43  32  65 NE7       30.06S
$$

WIZ032>034-041-042-053>061-290500-
SOUTHWEST WISCONSIN

CITY           SKY/WX    TMP DP  RH WIND       PRES   REMARKS
LA CROSSE      CLOUDY    41  36  82 N8        30.10R
SPARTA         CLOUDY    38  37  98 N6        30.10S WCI  33
VIROQUA        CLOUDY    38  37  96 NE6       30.06S WCI  33
BOSCOBEL       CLOUDY    42  40  92 E5        30.07R
PRAIRIE DU CHI CLOUDY    42  38  87 CALM      30.06S
PLATTEVILLE    CLOUDY    40  40  99 NE7       30.03F
$$

WIZ056-057-062-063-064-067-068-290500-
SOUTH CENTRAL WISCONSIN

CITY           SKY/WX    TMP DP  RH WIND       PRES   REMARKS
REEDSBURG      CLOUDY    38  37  97 N3        30.06S
BARABOO/DELLS  LGT RAIN  38  37  94 NE3       30.06S
LONE ROCK      CLOUDY    41  38  89 NE6       30.06S
MINERAL POINT  CLOUDY    41  39  93 NE5       30.04S
MADISON        CLOUDY    39  37  92 NE7       30.04F WCI  34
MIDDLETON      CLOUDY    40  39  95 NE8       30.05S
WATERTOWN      CLOUDY    39  39 100 CALM      30.05S FOG
MONROE         DRIZZLE   39  37  93 NE10      30.02F WCI  32
JANESVILLE     LGT RAIN  41  39  93 NE8       30.03S
$$

WIZ051-052-058>065-066-070>072-290500-
SOUTHEAST WISCONSIN

CITY           SKY/WX    TMP DP  RH WIND       PRES   REMARKS
MILWAUKEE      DRIZZLE   41  39  93 NE9       30.04S FOG
WAUKESHA       CLOUDY    37  36  93 NE7       30.05S FOG     WCI  32
MILWAUKEE/TIMM CLOUDY    39  36  87 NE6       30.06S FOG     WCI  35
RACINE         CLOUDY    41  39  93 NE7       30.04F FOG
BURLINGTON     CLOUDY    38  38  99 N3        30.03S FOG
KENOSHA        LGT RAIN  41  39  93 NE8       30.02F FOG
FOND DU LAC    CLOUDY    42  35  76 NE5       30.06F
SHEBOYGAN      CLOUDY    41  35  79 N3        30.06R
WEST BEND      CLOUDY    39  34  81 NE3       30.05F
JUNEAU         DRIZZLE   39  37  94 NE7       30.06F WCI  34
$$

LSZ147-162-290500-
LAKE SUPERIOR

STATION/POSITION TIME  TEMP    WIND        PRES    WAVE
                       AIR SEA DIR/SP/G            HT/PER
                 (UTC) (F)     (DEG/KT/KT) (MB)    (FT/S)
DEVILS ISLAND    0400   37      20/  9/ 10 1021.6F
SAXON HARBOR     0300   34     200/  2/  3 1019.3F
$$

LMZ867-665-643>646-290500-
LAKE MICHIGAN

STATION/POSITION TIME  TEMP    WIND        PRES    WAVE
                       AIR SEA DIR/SP/G            HT/PER
                 (UTC) (F)     (DEG/KT/KT) (MB)    (FT/S)
CHAMBERS ISLAND  0300   40     350/  3/  5 1019.3R
NORTHPORT PIER   0300   43      60/  8/ 10 1018.6S
ALGOMA LAKESHORE 0345           60/ 17/ 20   N/A
KEWAUNEE LAKESHO 0300   41                 1017.5S
SHEBOYGAN LAKESH 0400   41      30/  9/ 11 1018.7R
PORT WASHINGTON  0340   42      20/  6/ 10 1018.6R
KENOSHA   LAKESH 0400   41      30/ 10/ 12 1016.6F
$$

TC  - TEMPERATURE IN CELSIUS
VSB - VISIBILITY IN STATUTE MILES
WCI - WIND CHILL INDEX
HX  - HEAT INDEX





USA.gov is the U.S. government's official web portal to all federal, state and local government web resources and services.